User: anonymous   Login
Location: Sungai Laei
(2.6000°N, 113.7167°E)
Time: 19:18:56
(UTC+00:00)
Language:

Okean-O - Orbit

View from above orbital plane
View from above orbital plane
View from above satellite
View from above satellite

Ground track
Ground track

The orbit data is extracted from the following two-line orbital elements,

1 25860U 99039A   22230.10495040  .00000347  00000-0  56665-4 0  9999
2 25860  98.1347 270.4862 0001175 114.7479 245.3853 14.76995899242444
Epoch (UTC): 18 August 2022 02:31:07
Eccentricity: 0.0001175
inclination: 98.1347°
perigee height: 638 km
apogee height: 639 km
right ascension of ascending node: 270.4862°
argument of perigee: 114.7479°
revolutions per day: 14.76995899
mean anomaly at epoch: 245.3853°
orbit number at epoch: 24244

The dashed part of the orbit path shows where the satellite is in the earth's shadow,  

DLR